[[{"header":{"parameterUnit":"m.s-1","parameterCategory":1,"la1":30.2991,"la2":30.254,"lo1":-89.0895,"lo2":-89.0444,"dy":0.0017,"dx":0.0017,"nx":28,"ny":28,"refTime":"2025-01-11T03:00:00:Z","depth":0,"parameterNumber":2,"parameterNumberName":"U-component_of_WINDS"},"data":[0,0,0,0,0,0,0,0,0,0,0,0,0,0,0,0,0,0,0,0,0,0,0,0,0,0,0,0,0,0,0,0,0,0,0,0,0,0,0,0,0,0,0,0,0,0,0,0,0,0,0,0,0,0,0,0,0,0,-4.9117,-4.9118,0,-4.9175,-4.9176,-4.9176,-4.9099,-4.9096,-4.9093,-4.9091,-4.9146,-4.915,-4.9154,0,0,0,0,0,0,0,0,0,0,0,0,0,-4.8935,-4.8939,-4.9117,-4.9118,-4.9119,-4.9175,-4.9176,-4.9176,-4.9099,-4.9096,-4.9092,-4.9089,-4.9145,-4.915,-4.9155,0,0,0,0,0,0,0,0,0,0,0,0,0,-4.9006,-4.894,-4.9117,-4.9087,-4.9085,-4.9175,-4.9176,-4.9177,-4.91,-4.9096,-4.9092,-4.9088,-4.9143,-4.9149,-4.9155,-4.9276,0,0,-4.9174,-4.9177,0,0,0,0,0,0,0,0,-4.9002,-4.9013,-4.9091,-4.9089,-4.9087,-4.9125,-4.9132,-4.921,-4.9101,-4.9094,-4.909,-4.9086,-4.9142,-4.9148,-4.9168,-4.9279,-4.9281,-4.9174,-4.9178,-4.9181,-4.9182,0,0,0,0,0,0,0,-4.8997,-4.901,-4.914,-4.9092,-4.909,-4.9069,-4.9074,-4.9146,-4.9141,-4.9094,-4.9089,-4.9097,-4.9141,-4.9163,-4.9169,-4.9282,-4.9174,-4.918,-4.9183,-4.9186,-4.9492,-4.9497,0,0,0,0,0,0,-4.8996,-4.9006,-4.9138,-4.9142,-4.9033,-4.9076,-4.9082,-4.9117,-4.914,-4.9139,-4.91,-4.9093,-4.9154,-4.9162,-4.9171,-4.9312,-4.9181,-4.9186,-4.919,-4.9488,-4.9493,-4.9498,0,0,0,0,0,0,-4.8993,-4.9009,-4.9136,-4.9072,-4.9087,-4.9083,-4.9124,-4.9121,-4.9142,-4.9145,-4.9143,-4.9124,-4.9151,-4.9162,-4.925,-4.9313,-4.9189,-4.9195,-4.9483,-4.949,-4.9496,-4.9596,0,0,0,0,0,0,-4.8988,-4.9008,-4.9055,-4.9074,-4.9091,-4.9216,-4.9128,-4.9125,-4.9154,-4.9144,-4.9166,-4.9166,-4.9149,-4.9242,-4.9256,-4.9319,-4.92,-4.9477,-4.9486,-4.9494,-4.9587,-4.9605,-4.9621,0,0,0,0,0,-4.8982,-4.9081,-4.9058,-4.9074,-4.915,-4.922,-4.9229,-4.9208,-4.9159,-4.9205,-4.9206,-4.9165,-4.9304,-4.9251,-4.9267,-4.9332,-4.9473,-4.9483,-4.9493,-4.958,-4.9602,-4.9621,0,0,0,0,0,0,-4.9068,-4.9083,-4.9057,-4.9166,-4.9192,-4.9206,-4.9264,-4.9233,-4.9273,-4.9262,-4.9234,-4.924,-4.9334,-4.9342,-4.9283,-4.945,-4.938,-4.9394,-4.944,-4.9462,-4.9478,-4.9473,-4.9205,0,0,0,0,0,-4.91,-4.9157,-4.9166,-4.9261,-4.9275,-4.9268,-4.9298,-4.928,-4.9305,-4.9316,-4.9323,-4.9349,-4.9397,-4.943,-4.9476,-4.9589,-4.9591,-4.9642,-4.9659,-4.9672,-4.9684,-4.9742,-4.9763,-4.9531,-4.9531,-4.9531,0,0,-4.9165,-4.9181,-4.9218,-4.9278,-4.9297,-4.9354,-4.9278,-4.9343,-4.9384,-4.9325,-4.9408,-4.9415,-4.9441,-4.9542,-4.9587,-4.9552,-4.9749,-4.9685,-4.9696,-4.97,-4.9754,-4.9776,-4.9796,-4.9538,-4.9537,-4.9536,0,0,-4.9314,-4.9333,-4.9412,-4.9433,-4.9462,-4.9456,-4.9475,-4.9495,-4.9497,-4.9581,-4.9537,-4.9586,-4.9672,-4.9692,-4.9713,-4.987,-4.9832,-4.9886,-4.9973,-5.003,-5.0048,-5.0064,-5.0117,-5.0137,-4.9898,-4.9898,-4.9898,0,-4.9391,-4.9478,-4.9457,-4.9525,-4.9552,-4.9502,-4.9581,-4.9602,-4.9644,-4.9663,-4.9624,-4.9729,-4.9744,-4.9847,-4.9886,-4.9906,-4.9925,-4.9882,-5.0048,-5.0063,-5.0078,-5.0128,-5.0149,-4.9904,-4.9903,-4.9903,-4.9902,0,-4.9571,-4.9632,-4.9692,-4.9735,-4.9769,-4.9843,-4.9831,-4.9868,-4.9847,-4.9845,-4.993,-4.9946,-4.9993,-5.0016,-4.9997,-5.0117,-5.0094,-5.0052,-4.9981,-5.0106,-5.0153,-5.0172,-4.9913,-4.991,-4.9909,-4.9907,0,0,-4.9773,-4.9804,-4.9826,-4.9844,-4.9873,-4.9919,-4.999,-5.0036,-5.0067,-5.0099,-5.0155,-5.0229,-5.019,-5.0215,-5.0197,-5.0247,-5.0367,-5.0199,-5.0199,-5.0227,-5.0498,-5.0527,-5.055,-5.0344,-5.0348,-5.0351,-5.0494,0,-4.9919,-5.0043,-5.0026,-5.0143,-5.0198,-5.0152,-5.0213,-5.0236,-5.0237,-5.0282,-5.0282,-5.0333,-5.028,-5.0294,-5.0342,-5.0343,-5.0421,-5.0332,-5.0394,-5.0396,-5.0386,-5.0574,-5.0606,-5.074,-5.0513,-5.0516,-5.0518,0,-5.0106,-5.0145,-5.0268,-5.0287,-5.031,-5.0365,-5.0406,-5.0451,-5.0476,-5.0472,-5.05,-5.0473,-5.0542,-5.0472,-5.0565,-5.0505,-5.053,-5.0534,-5.0539,-5.0541,-5.0463,-5.0579,-5.0783,-5.0802,-5.0547,-5.0545,-5.0543,0,-5.0238,-5.0321,-5.0405,-5.0422,-5.0448,-5.0487,-5.0499,-5.052,-5.0549,-5.0585,-5.0603,-5.0647,-5.0669,-5.0703,-5.0687,-5.0639,-5.0782,-5.0712,-5.0779,-5.078,-5.0809,-5.0807,-5.1017,-5.083,-5.083,-5.083,-5.0829,0,-5.0401,-5.0478,-5.0464,-5.0515,-5.0599,-5.0579,-5.0662,-5.0668,-5.0687,-5.0738,-5.0701,-5.0749,-5.0728,-5.0773,-5.0762,-5.0839,-5.0851,-5.0848,-5.0843,-5.085,-5.0849,-5.0863,-5.0851,-5.0835,-5.0834,-5.0833,-5.0832,0,-5.0561,-5.0556,-5.0643,-5.0661,-5.0667,-5.0727,-5.0741,-5.0788,-5.0787,-5.0851,-5.0864,-5.0861,-5.0913,-5.0902,-5.0959,-5.0951,-5.1047,-5.1033,-5.1039,-5.1034,-5.1101,-5.1093,-5.1324,-5.1352,-5.1151,-5.1153,-5.1155,0,-5.0664,-5.0722,-5.0746,-5.0777,-5.0793,-5.0844,-5.0874,-5.0856,-5.0888,-5.0921,-5.0964,-5.1013,-5.1051,-5.1136,-5.1137,-5.1181,-5.1165,-5.1243,-5.1171,-5.1174,-5.1162,-5.1157,-5.1161,-5.1256,-5.1258,-5.126,-5.1262,0,-5.0846,-5.0841,-5.0885,-5.093,-5.0966,-5.0999,-5.1029,-5.1057,-5.1041,-5.1079,-5.1132,-5.1162,-5.1221,-5.1269,-5.1309,-5.1319,-5.1287,-5.1285,-5.1302,-5.1307,-5.1306,-5.1304,-5.1074,-5.1279,-5.1277,-5.1276,-5.1275,-5.1274,-5.0978,-5.1027,-5.1051,-5.1101,-5.1122,-5.1151,-5.1196,-5.12,-5.1245,-5.1291,-5.1278,-5.1338,-5.1361,-5.1411,-5.1427,-5.1472,-5.1443,-5.1468,-5.1474,-5.148,-5.1487,-5.1303,-5.148,-5.1479,-5.1479,-5.1479,-5.1478,0,-5.1156,-5.1169,-5.1217,-5.1259,-5.1299,-5.1268,-5.1299,-5.1333,-5.1387,-5.1412,-5.145,-5.1511,-5.1557,-5.1563,-5.1607,-5.1642,-5.1628,-5.1654,-5.1649,-5.1651,-5.1512,-5.1491,-5.1664,-5.1664,-5.1664,-5.1664,-5.1664,-5.1664,-5.1252,-5.1332,-5.1329,-5.1418,-5.1431,-5.149,-5.151,-5.1536,-5.1555,-5.1625,-5.1664,-5.1668,-5.1684,-5.1729,-5.177,-5.177,-5.1786,-5.1817,-5.1811,-5.168,-5.1662,-5.1644,-5.1624,-5.1822,-5.1822,-5.1946,-5.1947,-5.1948]},{"header":{"parameterUnit":"m.s-1","parameterCategory":1,"la1":30.2991,"la2":30.254,"lo1":-89.0895,"lo2":-89.0444,"dy":0.0017,"dx":0.0017,"nx":28,"ny":28,"refTime":"2025-01-11T03:00:00:Z","depth":0,"parameterNumber":3,"parameterNumberName":"V-component_of_WINDS"},"data":[0,0,0,0,0,0,0,0,0,0,0,0,0,0,0,0,0,0,0,0,0,0,0,0,0,0,0,0,0,0,0,0,0,0,0,0,0,0,0,0,0,0,0,0,0,0,0,0,0,0,0,0,0,0,0,0,0,0,-0.3251,-0.3252,0,-0.3358,-0.3359,-0.336,-0.346,-0.3461,-0.3463,-0.3464,-0.357,-0.3572,-0.3573,0,0,0,0,0,0,0,0,0,0,0,0,0,-0.3131,-0.3132,-0.3251,-0.3252,-0.3254,-0.3358,-0.3359,-0.3361,-0.346,-0.3461,-0.3463,-0.3464,-0.357,-0.3572,-0.3574,0,0,0,0,0,0,0,0,0,0,0,0,0,-0.3205,-0.3133,-0.3251,-0.3316,-0.3323,-0.3357,-0.3359,-0.3361,-0.346,-0.3461,-0.3463,-0.3465,-0.3569,-0.3571,-0.3574,-0.3552,0,0,-0.3581,-0.3583,0,0,0,0,0,0,0,0,-0.32,-0.3209,-0.3305,-0.3311,-0.3319,-0.3398,-0.3356,-0.3425,-0.3459,-0.3408,-0.3464,-0.3466,-0.3511,-0.3518,-0.3534,-0.3557,-0.3561,-0.3582,-0.3583,-0.3584,-0.3585,0,0,0,0,0,0,0,-0.3195,-0.3205,-0.3293,-0.3306,-0.3315,-0.3339,-0.3352,-0.3369,-0.3447,-0.3412,-0.342,-0.3431,-0.3515,-0.3532,-0.3537,-0.3563,-0.3582,-0.3584,-0.3585,-0.3586,-0.3572,-0.357,0,0,0,0,0,0,-0.318,-0.32,-0.329,-0.3296,-0.3263,-0.334,-0.3354,-0.3371,-0.3448,-0.3461,-0.3429,-0.3435,-0.3526,-0.3534,-0.3542,-0.352,-0.3584,-0.3587,-0.3588,-0.3574,-0.3571,-0.3569,0,0,0,0,0,0,-0.3177,-0.3187,-0.3286,-0.325,-0.3265,-0.334,-0.3358,-0.3372,-0.3388,-0.3461,-0.3475,-0.3432,-0.3528,-0.3538,-0.3549,-0.3525,-0.3588,-0.359,-0.3576,-0.3573,-0.357,-0.3476,0,0,0,0,0,0,-0.3173,-0.3186,-0.3179,-0.3249,-0.3266,-0.3291,-0.3356,-0.3372,-0.3392,-0.3401,-0.3467,-0.3479,-0.353,-0.3544,-0.3551,-0.3529,-0.3592,-0.3578,-0.3574,-0.3571,-0.3482,-0.347,-0.3461,0,0,0,0,0,-0.3169,-0.3147,-0.3178,-0.3188,-0.3259,-0.329,-0.3299,-0.3359,-0.339,-0.3383,-0.343,-0.3477,-0.3527,-0.3544,-0.3553,-0.3532,-0.358,-0.3576,-0.3571,-0.3486,-0.3473,-0.3461,0,0,0,0,0,0,-0.3071,-0.3158,-0.3192,-0.3194,-0.3233,-0.3306,-0.3299,-0.3343,-0.3374,-0.3381,-0.3454,-0.3468,-0.3469,-0.3502,-0.352,-0.3514,-0.356,-0.3557,-0.3492,-0.348,-0.347,-0.3461,-0.3594,0,0,0,0,0,-0.305,-0.3068,-0.3143,-0.3137,-0.3155,-0.3223,-0.3239,-0.3282,-0.3326,-0.3343,-0.3391,-0.343,-0.3455,-0.347,-0.3497,-0.3488,-0.3502,-0.3477,-0.3467,-0.3458,-0.3454,-0.345,-0.344,-0.3555,-0.3555,-0.3555,0,0,-0.3005,-0.3055,-0.3062,-0.3118,-0.3154,-0.317,-0.3237,-0.3252,-0.3264,-0.3345,-0.3358,-0.3394,-0.3443,-0.3443,-0.3446,-0.3471,-0.3426,-0.3453,-0.3445,-0.3446,-0.3445,-0.3434,-0.3424,-0.3552,-0.3553,-0.3553,0,0,-0.2933,-0.2973,-0.2972,-0.3007,-0.3061,-0.3107,-0.3106,-0.3173,-0.32,-0.3214,-0.3275,-0.3291,-0.3332,-0.3364,-0.3386,-0.3326,-0.337,-0.3333,-0.3278,-0.3273,-0.3264,-0.3256,-0.3233,-0.3224,-0.3329,-0.3329,-0.3329,0,-0.287,-0.2898,-0.2965,-0.2976,-0.2998,-0.3074,-0.3072,-0.3103,-0.3162,-0.3175,-0.3203,-0.3256,-0.3294,-0.3303,-0.3288,-0.3304,-0.3304,-0.3325,-0.326,-0.3253,-0.3247,-0.3226,-0.3217,-0.3324,-0.3324,-0.3325,-0.3325,0,-0.2818,-0.2837,-0.2829,-0.2885,-0.2907,-0.2912,-0.2978,-0.2992,-0.3033,-0.3076,-0.3089,-0.3138,-0.3175,-0.3181,-0.3221,-0.3195,-0.3208,-0.3247,-0.3294,-0.323,-0.3211,-0.3203,-0.3317,-0.3318,-0.332,-0.3321,0,0,-0.2685,-0.2779,-0.2775,-0.2801,-0.2867,-0.2882,-0.289,-0.2927,-0.2937,-0.2976,-0.2983,-0.3016,-0.3052,-0.3077,-0.3122,-0.3118,-0.3066,-0.3158,-0.316,-0.3137,-0.3037,-0.3006,-0.2996,-0.3096,-0.3095,-0.3094,-0.3033,0,-0.2622,-0.2641,-0.2702,-0.2702,-0.2719,-0.2791,-0.2798,-0.2838,-0.2878,-0.2898,-0.2942,-0.2964,-0.3011,-0.3026,-0.3026,-0.3072,-0.3046,-0.3078,-0.3102,-0.3102,-0.3085,-0.2986,-0.2954,-0.2893,-0.3026,-0.3025,-0.3024,0,-0.2551,-0.2585,-0.2587,-0.2652,-0.2661,-0.2666,-0.2705,-0.2724,-0.277,-0.28,-0.2827,-0.2878,-0.2889,-0.2934,-0.2949,-0.2969,-0.2983,-0.3007,-0.3006,-0.3009,-0.3057,-0.2984,-0.2876,-0.2866,-0.3013,-0.3014,-0.3015,0,-0.2451,-0.2498,-0.2506,-0.2526,-0.2602,-0.2603,-0.2635,-0.2684,-0.2702,-0.2736,-0.2749,-0.2784,-0.2802,-0.2827,-0.2885,-0.2913,-0.2893,-0.2943,-0.2916,-0.2914,-0.2907,-0.2906,-0.2796,-0.2919,-0.2919,-0.2919,-0.2919,0,-0.2373,-0.2371,-0.2462,-0.2465,-0.2465,-0.2535,-0.2532,-0.257,-0.2613,-0.2625,-0.269,-0.27,-0.2776,-0.2794,-0.284,-0.2845,-0.2853,-0.2876,-0.2887,-0.2869,-0.2865,-0.2877,-0.2882,-0.2917,-0.2917,-0.2918,-0.2918,0,-0.2261,-0.2322,-0.2334,-0.2405,-0.2423,-0.2419,-0.248,-0.2486,-0.253,-0.2544,-0.2552,-0.2621,-0.2646,-0.2707,-0.2747,-0.2778,-0.2769,-0.2792,-0.2753,-0.276,-0.2729,-0.273,-0.2621,-0.261,-0.2741,-0.2739,-0.2738,0,-0.2206,-0.2206,-0.2277,-0.229,-0.2319,-0.234,-0.2359,-0.2428,-0.2445,-0.2499,-0.2498,-0.2528,-0.2555,-0.2591,-0.2644,-0.2676,-0.2698,-0.2658,-0.2703,-0.2684,-0.2695,-0.2694,-0.2693,-0.2647,-0.2646,-0.2644,-0.2643,0,-0.2101,-0.2131,-0.2157,-0.2194,-0.2216,-0.2247,-0.2283,-0.229,-0.2367,-0.2383,-0.2409,-0.2431,-0.2472,-0.2501,-0.254,-0.2572,-0.2619,-0.2629,-0.2624,-0.2603,-0.258,-0.259,-0.2724,-0.263,-0.2632,-0.2633,-0.2633,-0.2634,-0.2014,-0.2017,-0.2068,-0.2095,-0.2129,-0.216,-0.2169,-0.2216,-0.2239,-0.2279,-0.2318,-0.234,-0.2387,-0.2445,-0.2473,-0.249,-0.2515,-0.2508,-0.2506,-0.2503,-0.2493,-0.2579,-0.2498,-0.2499,-0.2499,-0.2499,-0.25,0,-0.1911,-0.1948,-0.1972,-0.2019,-0.204,-0.2085,-0.2127,-0.2141,-0.2159,-0.22,-0.2226,-0.2255,-0.2283,-0.2339,-0.2372,-0.2375,-0.2397,-0.2381,-0.238,-0.2386,-0.2471,-0.2471,-0.2362,-0.2362,-0.2362,-0.2362,-0.2362,-0.2362,-0.186,-0.1867,-0.1903,-0.1927,-0.1964,-0.1987,-0.2006,-0.2035,-0.2068,-0.2098,-0.2122,-0.2159,-0.2205,-0.2241,-0.2269,-0.2284,-0.2292,-0.2268,-0.229,-0.2367,-0.238,-0.2393,-0.2393,-0.227,-0.227,-0.2204,-0.2204,-0.2203]}]]